Temp
3 3 3 3 4 4 4 4 4 4 4 4 4 4 4 4 4 4 4 4 4 4 4 4 4 4 4 4 4 3 4 4 4 4 4 4 4 4 4 5 6 6 6
3 3 3 3 4 4 3 3 3 3 4 4 4 4 4 4 5 5 5 5 4 4 4 4 4 4 4 4 4 4 3 3 4 4 4 4 4 4 4 4 4 5 6
3 3 3 3 3 3 3 3 3 3 4 4 4 4 4 4 4 4 4 4 5 5 4 4 4 4 4 4 4 4 3 3 3 4 4 4 4 4 4 4 4 4 4
2 2 2 2 3 3 3 3 3 3 3 3 3 4 4 4 4 4 4 4 4 4 4 4 4 4 4 4 4 4 3 3 3 3 4 4 4 4 4 4 4 4 4
1 1 1 2 2 2 3 3 3 3 3 3 3 3 3 3 4 3 3 3 3 4 4 4 4 4 4 4 4 4 4 3 3 3 3 3 4 3 3 4 4 4 4
1 1 1 1 1 2 2 2 2 2 2 2 2 2 3 3 3 3 3 3 3 3 4 4 4 4 4 4 4 4 3 4 4 4 3 3 3 4 4 3 3 3 4
-0 -0 -0 0 0 0 1 1 1 1 2 2 2 2 2 2 2 2 3 3 3 3 3 4 4 4 4 4 4 4 3 3 4 4 4 4 3 3 4 4 3 3 3
-1 -1 -1 -1 -1 -0 -0 -0 0 1 1 1 1 1 2 2 2 2 2 2 2 2 3 3 3 3 3 3 3 3 4 4 3 4 4 4 4 4 4 4 4 4 3
-2 -2 -2 -2 -2 -1 -1 -1 -1 -1 -0 0 0 1 1 1 1 1 1 1 2 2 2 2 2 3 3 3 3 3 3 3 3 3 3 4 4 3 3 4 4 4 4
-3 -3 -3 -3 -2 -2 -2 -2 -1 -1 -1 -1 -1 -0 -0 0 0 0 1 1 1 1 1 1 1 1 2 2 2 2 2 2 2 2 3 3 3 3 3 4 4 5 5
-4 -4 -4 -4 -4 -4 -3 -3 -3 -3 -2 -2 -2 -2 -1 -1 -1 -1 -1 -0 -0 -0 0 0 0 0 1 1 1 1 2 2 2 2 2 2 3 3 3 3 3 4 4
-5 -5 -5 -5 -5 -5 -4 -4 -4 -4 -4 -4 -4 -3 -3 -3 -2 -2 -2 -1 -1 -1 -1 -1 -0 -0 0 0 0 0 1 1 1 2 1 2 2 2 2 2 2 2 3
-7 -7 -6 -6 -6 -5 -5 -5 -5 -5 -5 -4 -4 -4 -4 -3 -3 -3 -3 -3 -3 -2 -2 -2 -2 -1 -1 -1 -1 -0 -0 0 1 1 1 1 1 1 1 2 2 2 2
-8 -7 -7 -7 -7 -7 -7 -7 -6 -6 -6 -6 -5 -5 -5 -5 -5 -5 -5 -4 -4 -4 -4 -3 -3 -3 -3 -2 -2 -2 -1 -1 -1 -0 0 0 0 1 1 1 1 1 1
-9 -9 -9 -9 -8 -8 -8 -8 -8 -8 -8 -7 -7 -7 -7 -7 -7 -7 -7 -7 -6 -6 -5 -5 -5 -4 -4 -4 -4 -3 -3 -2 -2 -1 -1 -1 -0 -0 0 0 0 1 1
-10 -9 -9 -9 -10 -10 -9 -9 -9 -9 -9 -9 -9 -9 -8 -8 -8 -8 -8 -8 -8 -8 -7 -7 -6 -6 -5 -5 -4 -4 -4 -4 -3 -3 -2 -2 -1 -1 -1 -1 -0 0 0
-10 -10 -10 -10 -10 -10 -10 -10 -10 -10 -10 -11 -11 -10 -10 -10 -10 -10 -9 -9 -9 -8 -8 -7 -7 -6 -6 -6 -6 -5 -5 -4 -4 -4 -3 -3 -2 -2 -1 -1 -1 -1 -0
-11 -11 -11 -11 -11 -11 -11 -11 -11 -11 -11 -12 -12 -12 -11 -11 -11 -11 -11 -10 -10 -9 -9 -9 -8 -8 -8 -7 -7 -6 -6 -5 -5 -5 -4 -4 -3 -3 -3 -2 -2 -2 -2
-12 -12 -12 -12 -12 -12 -12 -12 -12 -12 -12 -12 -13 -13 -12 -12 -12 -11 -11 -10 -10 -10 -10 -9 -9 -9 -9 -9 -8 -8 -8 -7 -7 -7 -6 -5 -5 -5 -4 -4 -4 -4 -4
-12 -12 -12 -12 -12 -13 -13 -13 -13 -14 -14 -14 -13 -13 -13 -13 -12 -12 -11 -11 -11 -11 -11 -10 -10 -10 -10 -10 -10 -10 -9 -9 -9 -8 -8 -8 -7 -7 -7 -6 -6 -6 -6
-13 -13 -13 -13 -14 -14 -15 -15 -14 -14 -14 -14 -14 -14 -13 -13 -13 -13 -12 -12 -12 -12 -12 -12 -12 -11 -11 -11 -11 -11 -11 -10 -10 -10 -10 -10 -9 -9 -9 -9 -8 -8 -8
-14 -14 -14 -15 -15 -15 -15 -15 -14 -14 -15 -15 -14 -14 -14 -14 -14 -14 -13 -13 -13 -13 -13 -13 -13 -13 -13 -13 -13 -13 -13 -12 -11 -12 -12 -11 -11 -11 -11 -11 -11 -10 -10
-15 -15 -15 -15 -15 -15 -15 -15 -15 -15 -15 -15 -15 -15 -15 -15 -15 -15 -15 -15 -15 -15 -15 -15 -15 -15 -15 -15 -14 -14 -14 -14 -13 -13 -13 -12 -13 -12 -12 -12 -12 -12 -12
-15 -16 -16 -16 -16 -16 -16 -16 -16 -16 -16 -16 -16 -16 -16 -16 -16 -16 -16 -16 -16 -16 -16 -17 -16 -16 -16 -17 -16 -16 -16 -16 -15 -15 -15 -14 -14 -13 -13 -13 -13 -13 -13
-17 -17 -17 -17 -17 -17 -17 -17 -16 -16 -16 -16 -16 -17 -17 -17 -17 -17 -17 -17 -17 -17 -17 -17 -17 -17 -17 -18 -18 -17 -17 -17 -17 -16 -16 -17 -16 -16 -15 -14 -15 -15 -15
-17 -17 -17 -17 -17 -17 -17 -17 -17 -17 -17 -17 -17 -17 -18 -18 -18 -18 -18 -18 -18 -18 -18 -18 -18 -18 -18 -18 -18 -18 -18 -18 -18 -17 -17 -17 -17 -17 -16 -16 -15 -15 -16
Height
3125 3128 3131 3133 3135 3137 3139 3142 3144 3146 3149 3151 3154 3155 3159 3161 3163 3165 3168 3171 3174 3176 3177 3179 3181 3182 3184 3188 3190 3191 3193 3193 3194 3197 3199 3199 3200 3201 3202 3203 3204 3205 3207
3118 3122 3125 3127 3130 3132 3135 3137 3140 3142 3145 3147 3149 3151 3153 3156 3159 3161 3163 3166 3169 3170 3171 3173 3175 3177 3180 3183 3185 3187 3190 3191 3192 3194 3195 3197 3198 3199 3200 3201 3202 3203 3204
3113 3116 3118 3121 3124 3127 3130 3132 3135 3137 3139 3141 3143 3146 3147 3151 3152 3155 3157 3159 3162 3164 3166 3168 3169 3171 3175 3178 3180 3182 3184 3186 3187 3189 3191 3193 3194 3196 3197 3200 3201 3201 3202
3106 3109 3112 3115 3118 3121 3124 3126 3129 3132 3134 3136 3138 3141 3142 3144 3146 3148 3150 3152 3155 3157 3158 3161 3163 3165 3169 3171 3175 3177 3179 3180 3182 3184 3186 3187 3189 3191 3193 3196 3197 3199 3200
3100 3103 3106 3109 3112 3115 3117 3120 3123 3125 3127 3130 3133 3135 3136 3138 3140 3141 3143 3145 3147 3150 3151 3154 3155 3158 3161 3165 3168 3171 3174 3173 3175 3178 3180 3183 3185 3186 3188 3191 3193 3194 3195
3092 3095 3099 3102 3105 3108 3110 3113 3116 3118 3121 3123 3125 3126 3128 3130 3132 3134 3135 3138 3140 3143 3145 3146 3149 3152 3154 3157 3159 3163 3167 3166 3168 3171 3174 3177 3179 3181 3182 3184 3186 3188 3190
3085 3088 3091 3094 3097 3100 3103 3106 3108 3111 3113 3115 3117 3119 3121 3123 3125 3127 3129 3131 3132 3135 3137 3140 3142 3145 3147 3150 3153 3155 3157 3157 3160 3165 3168 3171 3171 3172 3174 3177 3179 3181 3184
3078 3081 3084 3088 3090 3093 3096 3099 3101 3103 3105 3108 3110 3111 3113 3116 3117 3120 3122 3124 3125 3128 3130 3132 3135 3138 3140 3142 3144 3147 3149 3150 3152 3157 3160 3162 3164 3164 3166 3168 3170 3173 3177
3072 3074 3077 3081 3083 3086 3089 3092 3094 3096 3099 3101 3103 3105 3105 3107 3110 3112 3114 3116 3119 3120 3123 3125 3127 3129 3131 3134 3137 3138 3139 3141 3144 3148 3151 3153 3155 3156 3157 3159 3161 3165 3169
3064 3067 3070 3073 3076 3078 3081 3084 3087 3089 3091 3093 3095 3096 3098 3100 3102 3105 3106 3108 3110 3113 3114 3116 3118 3121 3123 3125 3127 3129 3131 3133 3135 3139 3141 3144 3145 3147 3147 3150 3153 3158 3160
3056 3059 3061 3065 3067 3070 3073 3075 3078 3081 3082 3084 3086 3088 3089 3092 3094 3097 3098 3101 3103 3104 3106 3108 3109 3111 3114 3117 3119 3121 3123 3124 3127 3129 3132 3134 3135 3137 3140 3144 3146 3148 3151
3049 3052 3054 3057 3060 3063 3066 3068 3070 3073 3075 3077 3078 3079 3081 3084 3085 3088 3090 3093 3095 3098 3098 3099 3100 3102 3104 3108 3110 3111 3114 3116 3118 3119 3121 3124 3126 3129 3132 3133 3134 3137 3140
3043 3045 3049 3052 3054 3057 3059 3061 3062 3065 3067 3069 3070 3071 3073 3074 3076 3078 3080 3083 3086 3088 3090 3091 3092 3093 3096 3099 3100 3102 3104 3106 3107 3109 3111 3113 3116 3119 3121 3123 3124 3126 3130
3037 3040 3042 3045 3047 3050 3052 3054 3055 3057 3059 3061 3062 3062 3064 3066 3068 3069 3072 3074 3076 3079 3080 3082 3084 3085 3088 3090 3092 3093 3094 3095 3097 3099 3101 3103 3106 3108 3110 3112 3114 3115 3118
3031 3034 3036 3038 3040 3042 3045 3047 3049 3050 3052 3054 3055 3056 3057 3058 3059 3061 3063 3065 3067 3069 3070 3072 3075 3077 3079 3081 3082 3083 3085 3087 3088 3089 3090 3092 3095 3097 3098 3100 3101 3103 3105
3025 3027 3030 3032 3034 3036 3038 3040 3041 3043 3045 3046 3048 3050 3051 3051 3052 3053 3055 3057 3060 3062 3062 3063 3065 3066 3069 3071 3072 3074 3076 3077 3078 3080 3081 3082 3083 3085 3086 3088 3090 3091 3093
3021 3023 3025 3027 3028 3030 3031 3033 3034 3035 3037 3039 3040 3042 3043 3044 3045 3046 3048 3049 3050 3052 3055 3054 3055 3056 3059 3060 3060 3062 3064 3066 3068 3068 3069 3071 3072 3073 3074 3075 3077 3079 3080
3016 3018 3020 3022 3023 3025 3026 3027 3029 3029 3030 3032 3034 3036 3036 3037 3038 3039 3040 3042 3042 3043 3045 3046 3046 3047 3048 3048 3049 3050 3052 3053 3055 3056 3057 3058 3060 3061 3063 3064 3065 3067 3068
3011 3013 3015 3016 3018 3020 3021 3022 3023 3024 3025 3026 3028 3029 3029 3031 3031 3032 3033 3034 3034 3034 3035 3037 3038 3037 3038 3038 3039 3039 3040 3041 3042 3044 3044 3046 3047 3048 3049 3050 3052 3054 3056
3006 3007 3009 3011 3012 3014 3015 3016 3017 3018 3019 3020 3022 3023 3023 3023 3024 3024 3025 3027 3026 3026 3026 3026 3028 3029 3029 3028 3028 3029 3029 3030 3031 3032 3033 3034 3035 3036 3037 3037 3037 3039 3042
3001 3002 3004 3005 3006 3008 3009 3010 3010 3011 3012 3013 3014 3015 3014 3015 3015 3015 3015 3016 3016 3016 3016 3016 3017 3018 3019 3019 3017 3017 3017 3019 3019 3021 3021 3023 3023 3024 3025 3025 3026 3026 3028
2995 2997 2998 2999 3000 3001 3001 3002 3001 3002 3004 3005 3005 3006 3005 3006 3005 3005 3005 3006 3006 3006 3006 3006 3006 3006 3009 3008 3008 3007 3007 3008 3009 3010 3009 3012 3011 3013 3014 3013 3014 3015 3016
2989 2991 2992 2993 2994 2994 2993 2994 2992 2993 2995 2995 2996 2996 2996 2996 2995 2996 2995 2995 2995 2996 2995 2996 2996 2996 2997 2999 2998 2998 2998 2997 2997 2999 2998 2999 3001 2999 3002 3002 3002 3003 3004
2984 2985 2986 2987 2987 2987 2986 2986 2985 2985 2987 2988 2988 2987 2987 2987 2987 2986 2986 2986 2986 2986 2987 2986 2985 2986 2987 2988 2987 2987 2987 2987 2986 2986 2986 2983 2988 2987 2990 2991 2990 2991 2991
2977 2979 2980 2980 2980 2980 2979 2979 2978 2978 2978 2979 2978 2978 2978 2978 2978 2977 2976 2976 2977 2977 2979 2978 2978 2977 2979 2979 2979 2978 2978 2977 2975 2976 2977 2973 2975 2974 2974 2976 2979 2979 2980
2971 2972 2972 2972 2972 2972 2970 2969 2968 2968 2969 2969 2969 2969 2968 2968 2969 2968 2967 2968 2967 2971 2970 2970 2969 2969 2971 2971 2972 2970 2969 2967 2967 2963 2969 2965 2964 2963 2961 2962 2965 2968 2968
Wind_Speed
29 29 29 27 25 24 23 24 25 25 24 24 24 25 23 24 25 25 26 25 24 25 25 25 25 22 20 19 17 16 17 14 11 9 10 11 11 10 10 10 11 11 12
31 30 30 29 27 26 25 24 25 26 26 25 25 26 25 25 26 27 27 27 26 27 27 28 29 26 24 22 21 23 21 21 18 19 18 13 14 13 12 12 12 13 13
32 30 31 30 29 28 27 26 26 26 27 27 27 27 28 29 29 29 30 30 29 29 30 31 30 29 29 29 26 22 22 23 23 24 23 23 21 17 16 15 14 14 13
31 31 32 31 30 29 28 27 27 27 28 28 28 29 30 30 30 31 32 32 31 32 33 33 32 31 31 31 29 28 29 28 27 27 27 26 31 25 21 20 18 17 16
32 32 32 32 31 30 30 29 29 29 29 28 28 29 30 30 31 31 31 31 31 32 33 33 34 33 33 32 32 31 32 33 33 31 30 30 29 28 26 25 23 21 19
33 34 33 32 32 32 32 31 31 31 30 29 29 29 30 30 30 31 31 31 32 31 32 32 33 33 32 33 34 33 33 36 36 36 35 35 34 33 32 29 27 26 25
33 33 33 33 33 32 32 32 32 32 33 32 31 31 31 31 31 31 32 32 33 33 32 34 34 33 34 34 32 32 34 36 37 37 37 36 36 37 37 37 34 32 30
32 32 32 32 33 33 33 33 33 33 33 33 32 32 33 32 32 32 33 33 33 34 34 35 35 35 35 34 34 34 35 36 35 35 36 36 39 40 41 40 39 37 35
31 32 33 32 33 33 33 33 33 34 34 33 33 34 34 34 32 33 33 34 34 34 34 35 36 36 36 35 35 36 36 37 36 36 36 36 37 39 41 41 41 40 38
31 32 32 32 32 33 33 34 34 34 34 34 34 35 35 35 34 33 34 34 33 33 34 34 35 36 37 37 37 38 38 38 38 37 38 38 39 40 42 41 40 39 38
30 30 31 31 31 31 31 32 32 33 34 34 34 34 35 34 34 34 35 34 34 33 34 35 35 36 36 37 38 39 40 40 40 39 39 39 41 42 41 40 40 41 40
30 30 31 31 30 30 30 31 32 31 31 32 32 33 33 33 34 34 34 34 35 34 35 35 36 37 38 37 37 38 39 40 41 42 41 41 42 42 42 42 42 42 42
30 30 29 29 29 29 29 29 29 30 30 31 32 32 33 33 33 34 34 33 33 34 34 35 37 37 37 37 38 39 39 40 41 42 43 43 42 42 43 43 44 44 44
29 30 29 28 28 29 28 28 28 29 30 30 31 31 32 32 32 32 32 32 33 33 34 34 35 37 36 36 36 37 38 39 41 41 42 43 43 43 43 43 44 44 44
30 29 28 29 30 30 30 29 29 30 30 30 30 31 30 30 31 31 31 30 31 31 33 34 34 34 36 35 36 37 37 38 39 40 41 42 43 43 44 44 45 45 45
30 31 29 26 27 28 28 28 28 30 31 32 32 32 32 30 30 31 31 31 30 30 32 34 34 35 35 35 37 38 37 37 38 39 40 41 42 43 43 44 45 46 47
24 24 25 25 25 24 25 25 25 25 26 26 26 27 29 30 32 33 34 33 33 33 33 35 36 38 37 37 39 40 40 40 40 40 41 42 43 43 44 44 45 46 47
21 21 20 21 21 22 22 23 24 24 23 21 21 21 23 23 24 25 26 28 29 31 31 31 32 34 34 36 37 39 40 42 44 44 46 46 46 46 46 47 47 47 48
19 19 20 20 21 22 22 21 21 20 20 21 22 23 25 26 27 27 28 28 29 31 32 32 32 32 33 35 36 37 37 39 40 41 44 45 46 47 48 49 48 48 47
18 20 21 21 20 18 18 18 19 20 21 22 23 23 23 24 25 26 28 29 30 30 31 32 32 32 32 33 35 35 38 38 38 39 39 41 42 43 44 45 47 45 45
20 19 19 19 18 18 19 20 21 22 22 22 23 23 24 25 25 27 28 29 30 31 31 31 31 31 31 32 34 34 36 37 37 37 38 38 40 40 40 42 43 43 44
16 18 18 17 17 18 20 21 22 22 22 22 22 23 24 26 27 28 29 30 30 30 30 31 31 31 29 31 31 33 36 35 37 35 36 36 39 39 39 40 41 42 42
21 20 19 19 19 20 21 23 24 24 24 25 25 27 28 28 29 29 29 29 30 29 29 29 30 30 31 29 31 30 32 35 35 34 37 38 36 40 38 39 40 40 40
20 20 20 21 21 22 24 25 26 28 27 27 29 30 30 29 28 29 30 30 29 29 28 29 32 31 32 30 30 29 30 31 33 33 33 40 36 38 36 38 39 40 40
20 21 22 23 23 24 26 27 29 30 30 29 30 30 30 30 28 30 31 30 29 28 26 29 31 32 31 29 28 29 30 32 35 33 30 36 34 36 37 38 37 37 38
22 24 25 26 26 26 29 31 32 33 31 31 30 30 30 30 28 29 29 29 30 25 27 29 31 31 29 28 28 29 30 33 34 37 31 36 36 37 41 40 38 36 38
Wind_Direction
238 239 243 248 250 246 240 238 239 243 246 245 245 248 248 248 250 248 245 241 238 239 239 242 244 243 235 234 229 227 217 236 234 233 241 237 231 223 216 218 221 220 226
238 240 241 245 247 245 242 239 237 237 237 240 243 246 250 251 251 252 251 249 244 242 242 242 244 244 243 239 230 227 228 225 220 231 241 238 244 244 235 228 229 229 225
239 238 242 244 244 243 243 242 240 240 240 241 245 249 251 252 253 251 251 251 247 245 243 245 245 245 243 239 235 232 230 230 221 225 237 241 251 249 246 240 238 239 240
241 240 243 245 245 244 243 242 242 242 243 244 246 248 251 252 250 250 249 248 247 246 245 245 245 245 244 245 241 234 232 233 228 226 226 225 230 240 244 246 240 241 246
244 244 245 246 246 246 246 246 244 243 244 247 249 251 251 251 250 248 247 247 245 244 245 244 247 246 246 246 243 238 239 237 237 234 234 233 235 237 238 236 240 241 239
243 244 244 244 244 244 246 247 249 250 250 250 251 251 252 250 248 247 247 246 246 244 245 247 247 248 248 245 244 242 240 240 239 238 239 241 244 243 244 242 239 240 241
243 243 243 244 244 244 245 247 247 249 251 252 253 252 250 249 247 245 244 243 243 244 244 244 246 245 246 248 248 246 244 243 243 242 241 243 245 247 248 246 244 242 242
244 244 244 245 246 247 247 248 249 249 250 251 253 253 251 249 247 245 244 246 245 244 243 243 245 245 245 244 245 246 246 245 244 242 243 241 241 244 247 248 247 245 244
244 243 243 243 244 246 247 248 250 252 252 253 252 253 252 251 249 246 244 243 243 244 244 243 244 244 246 246 245 245 245 246 246 244 242 241 240 242 244 246 247 246 245
242 243 244 244 246 247 249 249 249 251 253 253 252 252 252 251 251 251 247 246 246 246 246 245 244 244 243 245 246 246 246 247 245 244 243 242 241 241 243 245 247 248 247
243 243 244 244 245 248 250 252 252 252 253 253 253 253 253 253 251 250 252 252 249 247 248 248 248 247 245 243 244 245 246 247 248 247 244 243 245 245 245 246 247 249 249
242 243 244 245 247 248 250 252 254 253 253 254 255 254 254 254 254 253 251 251 252 252 251 249 249 249 249 247 246 245 245 247 248 250 249 247 246 246 247 248 248 247 246
242 243 246 248 250 251 253 255 257 258 256 255 254 253 254 254 254 254 253 251 250 249 250 252 252 251 250 250 250 249 248 248 249 249 251 251 251 250 250 249 249 250 250
241 243 244 247 250 253 253 254 255 256 256 255 253 252 251 250 251 252 253 254 254 253 252 251 251 253 255 255 254 253 252 251 251 251 252 254 256 256 255 254 254 254 253
236 241 243 244 246 248 251 253 254 254 256 257 256 255 252 251 249 249 250 250 252 252 252 252 252 252 252 252 253 252 252 253 254 254 254 254 256 257 258 258 259 259 258
236 241 248 252 252 252 252 252 252 254 254 254 253 252 252 252 252 253 254 254 255 256 259 260 259 257 256 255 255 254 254 254 253 254 255 256 256 257 258 259 259 260 261
251 252 252 251 249 248 249 249 247 248 249 249 251 251 252 253 254 256 259 260 259 259 258 261 263 263 263 261 261 261 262 260 260 260 258 258 258 258 259 260 260 262 263
254 254 251 250 249 246 245 245 242 239 238 238 242 247 249 251 253 254 256 259 261 260 258 257 261 263 263 263 263 263 264 264 264 263 263 262 261 261 261 261 261 261 261
245 247 248 247 243 241 239 238 240 243 248 251 253 254 255 256 257 257 258 259 261 263 264 262 260 262 263 265 265 266 264 263 264 264 264 264 264 263 262 262 261 261 261
250 245 243 241 238 239 244 249 252 254 257 259 259 260 258 257 256 259 261 263 264 265 267 268 267 267 267 266 266 265 266 267 264 265 265 266 266 266 266 266 264 262 261
247 246 244 240 241 244 248 252 257 261 263 262 262 263 263 265 266 267 268 269 270 270 270 271 271 268 269 269 270 269 269 266 268 268 266 266 265 265 265 265 266 265 263
251 246 245 246 246 252 260 265 267 270 269 270 270 270 270 272 274 274 274 272 270 271 274 274 274 274 270 269 270 270 271 271 268 269 271 265 266 264 263 262 262 263 263
248 249 252 254 259 264 268 271 274 273 273 274 275 276 277 278 277 277 276 276 275 276 275 275 275 276 277 273 271 271 273 273 272 271 269 266 262 264 264 262 261 260 259
250 253 256 260 266 270 272 274 275 276 275 276 278 278 277 276 276 275 273 273 274 276 278 278 278 278 278 279 281 281 278 277 276 275 274 274 271 266 263 262 261 260 259
257 258 261 268 272 273 274 275 275 275 276 276 275 275 275 274 274 273 275 276 275 274 276 274 273 273 276 278 279 278 275 277 277 277 272 275 277 275 269 262 258 257 257
262 267 272 274 275 275 276 276 276 276 276 275 274 274 274 275 272 273 274 274 273 276 271 270 271 273 274 275 274 274 276 275 276 276 277 278 277 277 276 273 271 266 259